Find Starlink 3204

NORAD ID: 49759 Int'l Des: 2021-115 Owner: SPXS Country: US Constellation: starlink operational
LEOCIRCULAR

Live Position

Loading 3D Globe...

About Starlink 3204

Description loading...

Upcoming Passes

Passes for default location (London). Set your location on the main map for personalized predictions.

Altitude History

Loading altitude history...

Two-Line Element Set

1 49759U 21115AM 26105.04920484 -.00000555 00000-0 -16763-4 0 9993
2 49759 53.2190 335.8978 0001313 93.5631 266.5512 15.08849558241168
Epoch: Apr 15, 2026 • Age: 21 hours

Current Status

Altitude 539.9 km
Velocity 7.60 km/s
Sub-Earth Point 22.11°N, 47.54°W
Launch Date Dec 2, 2021
Age 4.3 years
Type internet

Technical Details

Classification Payload
Mass 290.00 kg
Dry Mass 270.00 kg
Total Mass 290.00 kg
Length 0.20 m
Diameter 2.80 m
Span 9.00 m
Shape Box + pan
Manufacturer SPXS
Bus Type Starlink
Phase Status In Orbit
Owner/State SPXS/US

Most Searched